Showing default

ELECTRON SECOND STAGE, 100562

Orbit data source: Space-Track

ELECTRON SECOND STAGE, 100562 is a payload satellite owned by Rocket Lab (JP) in LEO that was launched on Wed, 02 Sep 2026 UTC launched from the Rocket Lab Launch Complex (RLLC). Payload-class satellites include a variety of spacecraft equipped with specific instruments for various scientific and technological missions. These include communications satellites like Starlink; space stations such as the ISS; scientific satellites like the Hubble; Earth observation satellites from companies like Planet Labs, Umbra, and HawkEye 360; GPS; miniature CubeSats for education and research; and military/defense satellites.

Loading next visibility...
Identifier
100562, 2026-201B
Orbit
LEO
Country
Flag of JPJP / JPN
Related business
Manufacturer
Rocket Lab
Mission
Spacecraft
Bus & Motor
ELECTRON ST2, Unknown motor
Mass
250 kg wet, ~250 kg dry
Launch date (UTC)
2026-09-02 (3 days ago)
Launch vehicle
Unknown
Launch site
Rocket Lab Launch Complex (RLLC)
Object type
Payload
Rocket body
Debris
Shape & HBR
CYL, 1.2 m
Radar Cross Section
RCS unknown

Expand to show TLE details & history
Last TLE update: 2 days ago

TLE from 2 days ago
0 ELECTRON SECOND STAGE
1 A0562U 26201B   26246.54739542  .00322627  30667-4  77077-3 0  9992
2 A0562  38.0466  64.7422 0267370 294.3041  63.0032 15.55781007   165
Epoch: 2026-09-03T13:08Z
TLE epoch observation values (Epoch: 2026-09-03T13:08:14.964Z)
Latitude
-0.00002°
Longitude
-115.00417°
Altitude
320.772 km
Speed
7.762 km/s
True Right ascension
04h 18m 58s
True Declination
0° 00' 00"
Sunlit
Object was in daylight at epoch
Visualization orbit readout
Latitude
Unknown
Longitude
Unknown
Altitude
Unknown
Speed
Unknown
Apparent Right ascension
Unknown
Apparent Declination
Unknown
Sunlit
N/A
Visualization observer readout
Local Sidereal Time
19:40:29
Azimuth
Unknown
Elevation
Unknown
Doppler factor
Unknown
Orbital elements
Apogee altitude
583.986 km
Perigee altitude
221.388 km
Semi-major axis
6,780.824 km
Eccentricity
0.02674
Inclination
38.0466°
RAAN
64.7422°
Arg. of periapsis
294.3041°
True anomaly
65.77412°
Mean anomaly
63.0032°
Eccentric anomaly
64.38455°
Mean motion
3.88704 °/min
Orbital period
92.62 mins
BSTAR
0.00077077
Loading maneuver chart data...
Computing Atmospheric mass density...
Loading historical data...
Loading historical data...
Loading historical data...
Loading historical data...
Loading historical data...
Loading historical data...
Loading historical data...
Other satellites on launch #201 in the year 2026 (2026-09-02 UTC)

Documentation

Showing up to 5 results
|